Weather History for EHRD - February, 2013

Change the Weather History Date:

Friday, February 22, 2013

  Actual Average (WUND) Record (WUND)
Temperature  
Mean Temperature 29 °F -  
Max Temperature 34 °F 47 °F - (-1)
Min Temperature 24 °F 35 °F - (-1)
Degree Days  
Heating Degree Days 36    
Moisture  
Dew Point 22 °F    
Average Humidity 73    
Maximum Humidity 93    
Minimum Humidity 48    
Precipitation  
Precipitation 0.00 in - - ()
Sea Level Pressure  
Sea Level Pressure 30.12 in    
Wind  
Wind Speed 10 mph ()    
Max Wind Speed 20 mph    
Max Gust Speed -    
Visibility 7.1 miles    
Events      
Averages and records for this station are not official NWS values.
T = Trace of Precipitation, MM = Missing Value Source: Averaged Metar Reports

Daily Weather History Graph

Daily Weather History Graph

Search for Another Location

Airport or City:

Trip Planner

Search our weather history database for the weather conditions in past years. The results will help you decide how hot, cold, wet, or windy it might be!

Date:

Astronomy

Feb. 22, 2013 Rise Set
Actual Time 7:42 AM CET 6:09 PM CET
Civil Twilight 7:08 AM CET 6:43 PM CET
Nautical Twilight 6:29 AM CET 7:22 PM CET
Astronomical Twilight 5:50 AM CET 8:02 PM CET
Moon 2:50 PM CET (2/22) 5:34 AM CET (2/22)
Length of Visible Light 11h 35m
Length of Day
10h 26m
Waxing Gibbous, 88% of the Moon is Illuminated
Feb 22
Waxing Gibbous
Feb 25
Full
Mar 4
Last Quarter
Mar 11
New
Mar 19
First Quarter

Hourly Weather History & Observations

Time (CET) Temp. Windchill Dew Point Humidity Pressure Visibility Wind Dir Wind Speed Gust Speed Precip Events Conditions
12:25 AM 28.4 °F 19.1 °F 23.0 °F 80% 30.18 in 6.2 mi NE 10.4 mph - N/A   Unknown
12:55 AM 28.4 °F 19.7 °F 23.0 °F 80% 30.18 in 6.2 mi NE 9.2 mph - N/A   Unknown
1:00 AM 27 °F - 23 °F 77% 30.20 in 17 mi NE 8.9 mph - -   Partly Cloudy
1:25 AM 26.6 °F 19.1 °F 23.0 °F 86% 30.18 in 6.2 mi NE 6.9 mph - N/A   Unknown
1:55 AM 26.6 °F 18.2 °F 23.0 °F 86% 30.18 in 6.2 mi NE 8.1 mph - N/A   Unknown
2:25 AM 26.6 °F 18.2 °F 23.0 °F 86% 30.18 in 6.2 mi NE 8.1 mph - N/A   Unknown
2:55 AM 28.4 °F 20.4 °F 23.0 °F 80% 30.18 in 6.2 mi NE 8.1 mph - N/A   Unknown
3:25 AM 26.6 °F 17.5 °F 23.0 °F 86% 30.15 in 6.2 mi NE 9.2 mph - N/A   Unknown
3:55 AM 26.6 °F 17.5 °F 23.0 °F 86% 30.15 in 6.2 mi NE 9.2 mph - N/A   Unknown
4:00 AM 26 °F - 22 °F 79% 30.17 in 15 mi NNE 6.7 mph - -   Scattered Clouds
4:25 AM 24.8 °F 16.9 °F 21.2 °F 86% 30.15 in 6.2 mi NNE 6.9 mph - N/A   Unknown
4:55 AM 26.6 °F 18.2 °F 23.0 °F 86% 30.15 in 6.2 mi NE 8.1 mph - N/A   Unknown
5:25 AM 26.6 °F 17.5 °F 23.0 °F 86% 30.15 in 6.2 mi NE 9.2 mph - N/A   Unknown
5:55 AM 26.6 °F 17.5 °F 23.0 °F 86% 30.15 in 6.2 mi NE 9.2 mph - N/A   Unknown
6:25 AM 26.6 °F 17.5 °F 23.0 °F 86% 30.15 in 6.2 mi NE 9.2 mph - N/A   Unknown
6:55 AM 26.6 °F 17.5 °F 21.2 °F 80% 30.15 in 6.2 mi NE 9.2 mph - N/A   Unknown
7:00 AM 26 °F - 22 °F 78% 30.16 in 13 mi NE 8.9 mph - -   Partly Cloudy
7:25 AM 24.8 °F 16.1 °F 21.2 °F 86% 30.15 in 6.2 mi NE 8.1 mph - N/A   Unknown
7:55 AM 24.8 °F 15.3 °F 23.0 °F 93% 30.15 in 6.2 mi NE 9.2 mph - N/A   Unknown
8:25 AM 26.6 °F 18.2 °F 23.0 °F 86% 30.15 in 6.2 mi NE 8.1 mph - N/A   Unknown
8:55 AM 26.6 °F 17.5 °F 23.0 °F 86% 30.15 in 6.2 mi NE 9.2 mph - N/A   Unknown
9:25 AM 26.6 °F 16.8 °F 23.0 °F 86% 30.15 in 6.2 mi NE 10.4 mph - N/A   Scattered Clouds
9:55 AM 28.4 °F 18.5 °F 24.8 °F 86% 30.15 in 6.2 mi NE 11.5 mph - N/A   Scattered Clouds
10:00 AM 29 °F - 25 °F 78% 30.17 in 11 mi NE 11.2 mph - -   Mostly Cloudy
10:25 AM 30.2 °F 19.8 °F 24.8 °F 80% 30.15 in 6.2 mi NE 13.8 mph - N/A   Scattered Clouds
10:55 AM 32.0 °F 21.6 °F 24.8 °F 75% 30.15 in 6.2 mi NE 15.0 mph - N/A   Scattered Clouds
11:25 AM 32.0 °F 21.2 °F 24.8 °F 75% 30.15 in 6.2 mi NE 16.1 mph - N/A   Mostly Cloudy
11:55 AM 32.0 °F 22.1 °F 23.0 °F 69% 30.15 in 6.2 mi NE 13.8 mph - N/A   Mostly Cloudy
12:25 PM 32.0 °F 21.2 °F 23.0 °F 69% 30.12 in 6.2 mi NE 16.1 mph - N/A   Mostly Cloudy
12:55 PM 32.0 °F 20.8 °F 23.0 °F 69% 30.12 in 6.2 mi NE 17.3 mph - N/A   Mostly Cloudy
1:00 PM 33 °F - 22 °F 54% 30.13 in 19 mi NE 17.9 mph - -   Partly Cloudy
1:25 PM 32.0 °F 21.2 °F 23.0 °F 69% 30.12 in 6.2 mi NE 16.1 mph - N/A   Overcast
1:55 PM 32.0 °F 21.2 °F 21.2 °F 64% 30.09 in 6.2 mi NE 16.1 mph - N/A   Overcast
2:25 PM 32.0 °F 21.6 °F 23.0 °F 69% 30.09 in 6.2 mi NE 15.0 mph - N/A   Overcast
2:55 PM 32.0 °F 22.1 °F 21.2 °F 64% 30.09 in 6.2 mi NE 13.8 mph - N/A   Mostly Cloudy
3:25 PM 32.0 °F 22.5 °F 21.2 °F 64% 30.09 in 6.2 mi NNE 12.7 mph - N/A   Overcast
3:55 PM 32.0 °F 21.6 °F 21.2 °F 64% 30.09 in 6.2 mi NE 15.0 mph - N/A   Overcast
4:00 PM 32 °F - 20 °F 49% 30.09 in 28 mi NE 13.4 mph - -   Overcast
4:25 PM 32.0 °F 21.6 °F 21.2 °F 64% 30.06 in 6.2 mi NE 15.0 mph - N/A   Overcast
4:55 PM 32.0 °F 21.2 °F 21.2 °F 64% 30.06 in 6.2 mi NE 16.1 mph - N/A   Overcast
5:25 PM 32.0 °F 23.0 °F 21.2 °F 64% 30.06 in 6.2 mi NE 11.5 mph - N/A   Overcast
5:55 PM 32.0 °F 23.0 °F 21.2 °F 64% 30.06 in 6.2 mi NE 11.5 mph - N/A   Overcast
6:25 PM 32.0 °F 22.1 °F 21.2 °F 64% 30.06 in 6.2 mi NE 13.8 mph - N/A   Overcast
6:55 PM 32.0 °F 21.6 °F 21.2 °F 64% 30.06 in 6.2 mi NE 15.0 mph - N/A   Overcast
7:00 PM 31 °F - 21 °F 55% 30.09 in 28 mi NE 15.7 mph - -   Partly Cloudy
7:25 PM 32.0 °F 20.1 °F 21.2 °F 64% 30.06 in 6.2 mi NE 19.6 mph - N/A   Overcast
7:55 PM 30.2 °F 19.3 °F 21.2 °F 69% 30.06 in 6.2 mi ENE 15.0 mph - N/A   Overcast
8:25 PM 30.2 °F 19.3 °F 19.4 °F 64% 30.06 in 6.2 mi NE 15.0 mph - N/A   Overcast
8:55 PM 30.2 °F 17.8 °F 19.4 °F 64% 30.06 in 6.2 mi ENE 19.6 mph - N/A   Overcast
9:25 PM 30.2 °F 18.9 °F 17.6 °F 60% 30.06 in 6.2 mi NE 16.1 mph - N/A   Overcast
9:55 PM 28.4 °F 16.6 °F 17.6 °F 64% 30.06 in 6.2 mi ENE 16.1 mph - N/A   Overcast
10:00 PM 29 °F - 17 °F 48% 30.09 in 9 mi ENE 15.7 mph - -   Overcast
10:25 PM 28.4 °F 16.6 °F 15.8 °F 59% 30.09 in 6.2 mi East 16.1 mph - N/A   Mostly Cloudy
10:55 PM 26.6 °F 16.2 °F 15.8 °F 64% 30.09 in 6.2 mi ENE 11.5 mph - N/A   Unknown
11:25 PM 26.6 °F 15.7 °F 15.8 °F 64% 30.09 in 6.2 mi NE 12.7 mph - N/A   Unknown
11:55 PM 26.6 °F 16.8 °F 17.6 °F 69% 30.09 in 6.2 mi ENE 10.4 mph - N/A   Unknown